sat.trackr.live / text

‹ back to catalog

JILIN-1 06

NORAD 43024 · 2017-074C

PAYLOAD ACTIVE UNKNOWN

§ Identity

Operator
Country
PRC
Launch date
2017-11-21
Launch site
TAISC
Launch vehicle
Mass (kg)
RCS (m²)

External: N2YO · Heavens-Above · Gunter

§ Orbital elements

Epoch: 2026-05-25T04:33:40.273344Z

Period
93.91 min
Inclination
97.4768°
Eccentricity
0.0005889
Mean motion
15.33401723 rev/d
Perigee alt
461.6 km
Apogee alt
469.7 km
Semi-major
6,843.8 km
B*
1.8955e-4
RAAN
248.0796°
Arg perigee
332.0203°
Mean anomaly
28.0721°
Rev number
47,031

§ Raw data

JILIN-1 061 43024U 17074C   26145.19004946  .00006040  00000+0  18955-3 0  99932 43024  97.4768 248.0796 0005889 332.0203  28.0721 15.33401723470319

JSON: /api/v1/satellites/43024 · /tle

For live sub-satellite position, see the globe view (requires WebGL).

§ Visibility from observer

Set your observer location to see the next 7 days of passes ≥ 10°. The values pass through the URL so the page stays shareable.

No JS? Fill the form by hand. The geolocation button needs JavaScript.